DKH1145 ZSPD-ZHHH

Flight info

Callsign DKH1145
Flight time N/A
Altitude 25600
Route POMOK G330 UNTAN G345 OLRIS R343 MADUK W51 LEGIV W164 ADGOL W50 XSH
Aircraft A20N/M-SDE2E3FGHIRWXY/LB1

Departure

Time 2026-05-05 05:02
Airport Shanghai Pudong International Airport (ZSPD)

Arrival

Time N/A
Airport Wuhan Tianhe International Airport (ZHHH)
Time Latitude Longitude Altitude Speed Heading
2026-05-05 04:43 31.15758 121.79197 21 ft 0 kts 71°
2026-05-05 04:53 31.15755 121.79186 21 ft 2 kts 71°
2026-05-05 04:53 31.15750 121.79170 21 ft 2 kts 72°
2026-05-05 04:53 31.15745 121.79153 21 ft 2 kts 71°
2026-05-05 04:53 31.15741 121.79136 21 ft 2 kts 72°
2026-05-05 04:54 31.15736 121.79120 21 ft 1 kts 71°
2026-05-05 04:54 31.15733 121.79108 21 ft 2 kts 56°
2026-05-05 04:54 31.15722 121.79096 21 ft 2 kts 31°
2026-05-05 04:54 31.15708 121.79090 21 ft 2 kts
2026-05-05 04:55 31.15695 121.79091 21 ft 0 kts 345°
2026-05-05 04:55 31.15689 121.79093 21 ft 1 kts 341°
2026-05-05 04:55 31.15688 121.79094 21 ft 0 kts 341°
2026-05-05 04:57 31.15690 121.79093 21 ft 0 kts 342°
2026-05-05 04:57 31.15704 121.79088 21 ft 3 kts 342°
2026-05-05 04:57 31.15734 121.79076 21 ft 5 kts 342°
2026-05-05 04:58 31.15780 121.79060 21 ft 7 kts 342°
2026-05-05 04:58 31.15836 121.79038 21 ft 9 kts 342°
2026-05-05 04:58 31.15900 121.79014 21 ft 10 kts 342°
2026-05-05 04:58 31.15973 121.78987 21 ft 11 kts 342°
2026-05-05 04:59 31.16052 121.78957 21 ft 12 kts 342°
2026-05-05 04:59 31.16121 121.78931 21 ft 8 kts 342°
2026-05-05 04:59 31.16171 121.78898 21 ft 8 kts 304°
2026-05-05 04:59 31.16171 121.78828 21 ft 8 kts 252°
2026-05-05 05:00 31.16152 121.78761 21 ft 9 kts 251°
2026-05-05 05:00 31.16130 121.78687 21 ft 10 kts 251°
2026-05-05 05:00 31.16109 121.78637 21 ft 5 kts 225°
2026-05-05 05:00 31.16068 121.78622 21 ft 6 kts 174°
2026-05-05 05:01 31.16014 121.78641 21 ft 12 kts 162°
2026-05-05 05:01 31.15703 121.78758 21 ft 83 kts 162°
2026-05-05 05:01 31.14941 121.79046 22 ft 144 kts 162°
2026-05-05 05:01 31.13900 121.79446 407 ft 158 kts 162°
2026-05-05 05:02 31.12875 121.79832 1059 ft 156 kts 163°
2026-05-05 05:02 31.11858 121.80187 1767 ft 153 kts 166°
2026-05-05 05:02 31.10851 121.80512 2386 ft 153 kts 166°
2026-05-05 05:02 31.09833 121.80839 2950 ft 154 kts 165°
2026-05-05 05:03 31.08775 121.81181 3439 ft 162 kts 165°
2026-05-05 05:03 31.07645 121.81550 3835 ft 177 kts 165°
2026-05-05 05:03 31.06406 121.81955 4239 ft 194 kts 165°
2026-05-05 05:03 31.05039 121.82404 4665 ft 211 kts 165°
2026-05-05 05:04 31.03568 121.82886 5111 ft 228 kts 164°
2026-05-05 05:04 31.01935 121.83232 5467 ft 251 kts 182°
2026-05-05 05:04 31.00205 121.82713 5975 ft 267 kts 210°
2026-05-05 05:04 30.98803 121.81231 6653 ft 277 kts 238°
2026-05-05 05:05 30.98089 121.79180 7537 ft 278 kts 254°
2026-05-05 05:05 30.97536 121.77032 8399 ft 281 kts 254°
2026-05-05 05:05 30.96964 121.74874 9247 ft 283 kts 253°
2026-05-05 05:05 30.96466 121.72650 10076 ft 286 kts 263°
2026-05-05 05:06 30.96451 121.70361 10822 ft 290 kts 278°
2026-05-05 05:06 30.96833 121.68018 11250 ft 305 kts 282°
2026-05-05 05:06 30.97322 121.65498 11585 ft 323 kts 283°
2026-05-05 05:06 30.97829 121.62884 11897 ft 339 kts 283°
2026-05-05 05:07 30.98342 121.60184 12546 ft 345 kts 282°
2026-05-05 05:07 30.98853 121.57445 13343 ft 347 kts 282°
2026-05-05 05:07 30.99355 121.54724 14131 ft 348 kts 282°
2026-05-05 05:07 30.99864 121.51955 14871 ft 351 kts 282°
2026-05-05 05:08 31.00407 121.49181 15505 ft 355 kts 287°
2026-05-05 05:08 31.01597 121.46663 16032 ft 362 kts 311°
2026-05-05 05:08 31.03591 121.44868 16717 ft 366 kts 326°
2026-05-05 05:08 31.05758 121.43265 17309 ft 370 kts 325°
2026-05-05 05:09 31.07898 121.41636 17919 ft 373 kts 324°
2026-05-05 05:09 31.10067 121.39945 18504 ft 376 kts 323°
2026-05-05 05:09 31.12226 121.38236 19043 ft 379 kts 323°
2026-05-05 05:09 31.14422 121.36480 19613 ft 383 kts 323°
2026-05-05 05:10 31.16621 121.34712 20158 ft 387 kts 322°
2026-05-05 05:10 31.18858 121.32896 20717 ft 390 kts 322°
2026-05-05 05:10 31.21082 121.31087 21257 ft 394 kts 322°
2026-05-05 05:10 31.23352 121.29243 21805 ft 398 kts 322°
2026-05-05 05:11 31.25631 121.27392 22350 ft 401 kts 322°
2026-05-05 05:11 31.27930 121.25526 22883 ft 404 kts 322°
2026-05-05 05:11 31.30243 121.23647 23403 ft 408 kts 322°
2026-05-05 05:11 31.32567 121.21760 23906 ft 410 kts 322°
2026-05-05 05:12 31.34932 121.19840 24410 ft 413 kts 322°
2026-05-05 05:12 31.37292 121.17919 24890 ft 415 kts 322°
2026-05-05 05:12 31.39663 121.15991 25345 ft 418 kts 322°
2026-05-05 05:12 31.42050 121.14067 25579 ft 420 kts 323°
2026-05-05 05:13 31.44569 121.12247 25599 ft 421 kts 326°
2026-05-05 05:13 31.47145 121.10622 25602 ft 422 kts 329°
2026-05-05 05:13 31.49789 121.09154 25604 ft 424 kts 332°
2026-05-05 05:13 31.52472 121.07728 25603 ft 424 kts 332°
2026-05-05 05:14 31.55161 121.06307 25606 ft 424 kts 332°
2026-05-05 05:14 31.57869 121.04874 25607 ft 424 kts 332°
2026-05-05 05:14 31.60561 121.03446 25603 ft 423 kts 332°
2026-05-05 05:14 31.63261 121.02010 25600 ft 423 kts 332°
2026-05-05 05:15 31.65939 121.00584 25602 ft 423 kts 332°
2026-05-05 05:15 31.68633 120.99149 25603 ft 423 kts 332°
2026-05-05 05:15 31.71302 120.97723 25600 ft 423 kts 332°
2026-05-05 05:15 31.74004 120.96281 25598 ft 422 kts 333°
2026-05-05 05:16 31.76660 120.94863 25598 ft 422 kts 333°
2026-05-05 05:16 31.79342 120.93429 25599 ft 422 kts 333°
2026-05-05 05:16 31.82002 120.92004 25598 ft 422 kts 333°
2026-05-05 05:16 31.84700 120.90559 25595 ft 422 kts 333°
2026-05-05 05:17 31.87351 120.89137 25596 ft 422 kts 333°
2026-05-05 05:17 31.90051 120.87688 25597 ft 422 kts 333°
2026-05-05 05:17 31.92722 120.86254 25597 ft 422 kts 333°
2026-05-05 05:17 31.95394 120.84821 25599 ft 422 kts 333°
2026-05-05 05:18 31.98074 120.83383 25597 ft 422 kts 333°
2026-05-05 05:18 32.00748 120.81947 25595 ft 422 kts 333°
2026-05-05 05:18 32.03421 120.80510 25593 ft 421 kts 333°
2026-05-05 05:18 32.06067 120.79084 25593 ft 421 kts 333°
2026-05-05 05:19 32.08757 120.77634 25592 ft 421 kts 333°
2026-05-05 05:19 32.11445 120.76184 25593 ft 420 kts 333°
2026-05-05 05:19 32.13919 120.74417 25579 ft 415 kts 317°
2026-05-05 05:19 32.15799 120.71896 25590 ft 411 kts 301°
2026-05-05 05:20 32.16968 120.68851 25593 ft 410 kts 285°
2026-05-05 05:20 32.17419 120.65527 25604 ft 410 kts 276°
2026-05-05 05:20 32.17686 120.62202 25596 ft 411 kts 276°
2026-05-05 05:20 32.17954 120.58825 25591 ft 411 kts 276°
2026-05-05 05:21 32.18219 120.55496 25589 ft 411 kts 276°
2026-05-05 05:21 32.18493 120.52120 25588 ft 411 kts 276°
2026-05-05 05:21 32.18763 120.48798 25586 ft 411 kts 276°
2026-05-05 05:21 32.19038 120.45422 25586 ft 411 kts 276°
2026-05-05 05:22 32.19309 120.42088 25589 ft 411 kts 276°
2026-05-05 05:22 32.19581 120.38734 25584 ft 411 kts 276°
2026-05-05 05:22 32.19855 120.35377 25585 ft 412 kts 276°
2026-05-05 05:22 32.20063 120.31978 25578 ft 412 kts 270°
2026-05-05 05:23 32.19779 120.28644 25580 ft 413 kts 259°
2026-05-05 05:23 32.18943 120.25372 25583 ft 414 kts 249°
2026-05-05 05:23 32.17676 120.22330 25584 ft 417 kts 244°
2026-05-05 05:23 32.16306 120.19340 25579 ft 417 kts 243°
2026-05-05 05:24 32.14905 120.16319 25577 ft 417 kts 243°
2026-05-05 05:24 32.13524 120.13337 25577 ft 417 kts 243°
2026-05-05 05:24 32.12120 120.10297 25575 ft 417 kts 243°
2026-05-05 05:24 32.10747 120.07315 25575 ft 416 kts 243°
2026-05-05 05:25 32.09372 120.04327 25574 ft 417 kts 243°
2026-05-05 05:25 32.08436 120.02297 25575 ft 416 kts 243°